Regional Weather Roundup
Issued by NWS Bismarck, ND

Home | Current Version | Previous Version | Text Only | Print | Product List | Glossary On
Versions: 1 2 3 4 5 6 7 8 9 10 11 12 13 14 15 16 17 18 19 20 21 22 23 24 25 26 27 28 29 30 31 32 33 34 35 36 37 38 39 40 41 42 43 44 45 46 47 48 49 50
000
ASUS43 KBIS 280620
RWRBIS

NWR BROADCAST TEXT
NATIONAL WEATHER SERVICE BISMARCK ND
100 AM CDT TUE APR 28 2015

NOTE: "FAIR" INDICATES FEW OR NO CLOUDS BELOW 12,000 FEET WITH NO
SIGNIFICANT WEATHER AND/OR OBSTRUCTIONS TO VISIBILITY.


CITY           SKY/WX    TMP DP  RH WIND       PRES   REMARKS
WILLISTON      CLEAR     42  36  79 S5        30.30S
MINOT          CLEAR     42  37  82 SW12      30.28R
MINOT AFB      CLEAR     40  40 100 W10       30.27R
BISMARCK       CLEAR     41  38  89 NW5       30.31S
DICKINSON      PTCLDY    34  31  88 W8        30.31R
GARRISON         N/A     37  34  89 W3        30.30R
HETTINGER ARPT CLEAR     32  30  92 CALM      30.34R
JAMESTOWN      MOCLDY    44  42  93 NW8       30.26S
BEACH          MOCLDY    36  36 100 CALM      30.34S
CARRINGTON     FAIR      37  37 100 NW7       30.29S
CROSBY         FAIR      39  39 100 S8        30.29S
HARVEY           N/A    N/A N/A N/A MISG        N/A
HAZEN          MOCLDY    32  32 100 SW3       30.33R
LINTON         CLOUDY    45  45 100 CALM      30.30S
MANDAN         FAIR      36  36 100 NW7       30.32R
OAKES            N/A     46  46 100 N12       30.27R
STANLEY        FAIR      36  36 100 W6        30.31S
TIOGA          FAIR      37  37 100 CALM      30.33S
WATFORD CITY   FAIR      36  36 100 SW6       30.30S
$$

CITY           SKY/WX    TMP DP  RH WIND       PRES   REMARKS
GRAND FORKS    CLOUDY    45  43  93 N3        30.26S
GRAND FORKS AF FOG       41  41 100 N3        30.26S VSB 1/4
DEVILS LAKE      N/A     36  32  87 NW8       30.28R VSB 3/4
FARGO          LGT RAIN  49  43  80 N12       30.24R
CANDO          FOG       32  32 100 W6        30.29R VSB<1/4
CAVALIER       FOG       36  36 100 CALM      30.27S VSB<1/4
GRAFTON        FOG       39  39 100 CALM      30.27S VSB<1/4
GWINNER        CLOUDY    48  46  93 N10       30.27R
LANGDON        FOG       30  30 100 CALM      30.27S VSB<1/4
WALHALLA       FOG       36  36 100 CALM      30.27S VSB 1/2
$$

CITY           SKY/WX    TMP DP  RH WIND       PRES   REMARKS
ABERDEEN       CLOUDY    49  43  80 N13       30.27F
MOBRIDGE       MOCLDY    40  38  93 N6        30.28R FOG
BUFFALO          N/A     43  36  76 W3        30.27S
RAPID CITY     CLOUDY    42  38  85 N3        30.35S
GLASGOW        CLEAR     41  34  76 SE10      30.28S
SIDNEY         CLEAR     37  34  87 CALM      30.32S
WOLF POINT     CLEAR     42  35  76 W6        30.30S
GLENDIVE       CLEAR     37  34  87 SW7       30.34S
MILES CITY     CLEAR     40  35  83 SE7       30.33S
BAKER          PTCLDY    33  31  92 CALM      30.34S
$$

CITY           SKY/WX    TMP DP  RH WIND       PRES   REMARKS
BILLINGS       CLEAR     49  34  56 S8        30.28S
GREAT FALLS    CLEAR     45  32  60 S12       30.20F
REGINA         CLEAR     39  36  87 SE8       30.23F
ESTEVAN        PTCLDY    39  34  81 S6        30.28S
$$




USA.gov is the U.S. government's official web portal to all federal, state and local government web resources and services.